Tracking 34747 objects as of 17-Jul-2026
HD Live streaming from Space Station
objects crossing your sky now

BREEZE-M DEB

Track BREEZE-M DEB now!
10-day predictions


NORAD ID: 34257
Int'l Code: 2006-006BY
Perigee: 578.5 km
Apogee: 14,319.0 km
Inclination: 52.2 °
Period: 269.5 minutes
Semi major axis: 13819 km
RCS: 0.0251 m2 (small)
Launch date: February 28, 2006
Source: Commonwealth of Independent States (former USSR) (CIS)
Launch site: TYURATAM MISSILE AND SPACE COMPLEX (TTMTR)

Note: This is SATELLITE DEBRIS
Your satellite tracking list
Your tracking list is empty




NASA's NSSDC Master Catalog

Two Line Element Set (TLE):
1 34257U 06006BY  26190.64508836  .00001572  00000-0  46285-2 0  9993
2 34257  52.1738 339.0211 4971327 127.9864 355.1233  5.34383756 40660
Source of the keplerian elements: AFSPC